Powrót do katalogu

FENGYUN 1C DEB

AktywnySSO
NORAD 36211·DEBRIS·🇨🇳 China

Wystrzelony May 10, 1999 z Taiyuan Satellite Launch Center

Loading…

Następne Przeloty (najbliższe 24 godziny)

TLE

Starzejące sięSource: Space-Track

Epoka: Sep 8, 2026, 05:21 UTC

1 36211U 99025DUL 26251.22309157  .00000653  00000-0  19942-3 0  9995
2 36211  98.5208 242.3529 0264830 158.5204 202.7340 14.26857349982110

Śledź FENGYUN 1C DEB w czasie rzeczywistym z AllMySat

Download on the App Store